Regional Weather Roundup
Issued by NWS Huntsville, AL

Home | Current Version | Previous Version | Text Only | Print | Product List | Glossary On
Versions: 1 2 3 4 5 6 7 8 9 10 11 12 13 14 15 16 17 18 19 20 21 22 23 24 25 26 27
000
ASUS44 KHUN 221710
RWRHUN

WEATHER ROUNDUP FOR THE TENNESSEE VALLEY
NATIONAL WEATHER SERVICE HUNTSVILLE AL
1100 AM CST SUN JAN 22 2017

ALZ001>004-221800-
NORTHWEST ALABAMA

CITY           SKY/WX    TMP DP  RH WIND       PRES   REMARKS
COURTLAND HCN    N/A     61 N/A N/A S5          N/A
RUSSELLVILLE     N/A     59 N/A N/A MISG        N/A
SHOALS AIRPORT PTSUNNY   61  56  83 CALM      29.42F
SHOALS TVA RES   N/A     57 N/A N/A MISG        N/A
$$

ALZ005>007-016-221800-
NORTH CENTRAL ALABAMA

CITY           SKY/WX    TMP DP  RH WIND       PRES   REMARKS
CULLMAN AG STN   N/A     61 N/A N/A S5          N/A
DECATUR AP     CLOUDY    61  58  90 E6        29.41F
HUNTSVILLE AP  LGT RAIN  62  58  86 E9        29.40F
MERIDIANVILLE  CLOUDY    59  54  82 SE6       29.46F
REDSTONE ARSN  LGT RAIN  60  57  90 E6        29.41F FOG
VINEMONT AP    CLOUDY    60  58  92 CALM      29.40F
$$

ALZ008>010-221800-
NORTHEAST ALABAMA

CITY           SKY/WX    TMP DP  RH WIND       PRES   REMARKS
ALBERTVILLE    CLOUDY    61  61 100 CALM      29.41F
FORT PAYNE     PTSUNNY   63  54  72 S3        29.46F
SCOTTSBORO AP  CLOUDY    63  57  82 SW6       29.46F
SCOTTSBORO HCN   N/A     63 N/A N/A MISG        N/A
VALLEY HEAD      N/A     63 N/A N/A MISG        N/A
$$

TNZ076-096-097-221800-
SOUTHEASTERN MIDDLE TENNESSEE

CITY           SKY/WX    TMP DP  RH WIND       PRES   REMARKS
TULLAHOMA      CLOUDY    57  54  88 SE6       29.46F
WINCHESTER     CLOUDY    61  55  82 S7        29.46F
$$

...SURROUNDING SITES...

CITY           SKY/WX    TMP DP  RH WIND       PRES   REMARKS
ATLANTA        FOG       59  58  96 SE6       29.51F VSB 1/4
ANNISTON       CLOUDY    66  60  81 E10       29.39F
BIRMINGHAM     PTSUNNY   65  60  84 VRB3      29.37F
CHATTANOOGA    CLOUDY    62  54  74 S9        29.48F
CORINTH        CLOUDY    57  54  88 S7        29.41R
DALTON         CLOUDY    61  57  88 S6        29.47F
GADSDEN        CLOUDY    66  61  84 N5        29.37F
GOLDEN TRNGL   CLOUDY    55  48  76 W9        29.40S
HALEYVILLE     CLOUDY    60  57  89 S5        29.41F
JACKSON TN     CLOUDY    58  56  93 NE7       29.37F
MEMPHIS        CLOUDY    57  55  93 VRB3      29.38S
NASHVILLE      PTSUNNY   61  55  81 E7        29.45F
OXFORD MS      LGT RAIN  54  50  87 S8        29.43R
ROME           CLOUDY    63  57  81 SE6       29.46F
SAVANNAH       CLOUDY    57  55  94 S6        29.40F FOG
TUPELO         CLOUDY    58  53  84 S12G21    29.42S
TUSCALOOSA     CLOUDY    62  60  93 S6        29.40F
$$

...GULF COAST WEATHER...

CITY           SKY/WX    TMP DP  RH WIND       PRES   REMARKS
GULFPORT       LGT RAIN  57  54  89 NW9       29.46F
PASCAGOULA     LGT RAIN  57  50  77 NW8G23    29.48R
MOBILE         CLOUDY    59  53  80 W23G35    29.47S
GULF SHORES    PTSUNNY   68  68 100 W13G21    29.36F
PENSACOLA      CLOUDY    68  66  93 SW16G25   29.35F THUNDER FOG
DESTIN         CLOUDY    76  73  91 S21G33    29.36F
PANAMA CITY    SUNNY     76  71  83 S21G28    29.42F
APPALACHICOLA  CLOUDY    76  73  91 S20G30    29.48F
$$





USA.gov is the U.S. government's official web portal to all federal, state and local government web resources and services.